Location: Home
(42.5358°N, 72.7383°W)
Time: 06:51:12
(UTC-05:00)

Courier 1B - Pass Details

Date: 07 December 2021
Orbit: 962 x 1209 km, 28.3° (Epoch: 25 January)

Event Time Altitude Azimuth Distance (km) Brightness Sun altitude
Rises 18:47:07 0° 255° (WSW) 4,005 12.0 -26.7°
Reaches altitude 10° 18:50:51 10° 239° (WSW) 2,999 10.9 -27.4°
Maximum altitude 18:55:46 19° 197° (SSW) 2,314 9.6 -28.3°
Enters shadow 18:59:18 14° 163° (SSE) 2,624 9.6 -28.9°
Drops below altitude 10° 19:00:31 10° 154° (SSE) 2,868 - -29.2°
Sets 19:04:00 0° 138° (SE) 3,774 - -29.8°
